Time,TemperatureF,DewpointF,PressureIn,WindDirection,WindDirectionDegrees,WindSpeedMPH,WindSpeedGustMPH,Humidity,HourlyPrecipIn,Conditions,Clouds,dailyrainin,SoftwareType,DateUTC
2013-03-20 00:00:00,40.5,23.3,29.85,NW,315,8.1,8.1,50,0.00,,,0.26,WUHU216HW,2013-03-20 04:00:00,
2013-03-20 00:05:00,40.5,23.3,29.85,NW,315,8.1,8.1,50,0.00,,,0.26,WUHU216HW,2013-03-20 04:05:00,
2013-03-20 01:00:00,38.3,23.5,29.88,ENE,68,2.2,2.2,55,0.00,,,0.00,WUHU216HW,2013-03-20 05:00:00,
2013-03-20 01:05:00,38.2,23.8,29.89,WNW,293,1.8,5.4,56,0.00,,,0.00,WUHU216HW,2013-03-20 05:05:00,
2013-03-20 01:10:00,38.0,23.1,29.89,WNW,293,3.8,5.6,55,0.00,,,0.00,WUHU216HW,2013-03-20 05:10:00,
2013-03-20 01:15:00,37.8,23.1,29.89,NW,315,5.1,7.2,55,0.00,,,0.00,WUHU216HW,2013-03-20 05:15:00,
2013-03-20 01:20:00,37.8,23.1,29.89,NW,315,5.1,8.3,55,0.00,,,0.00,WUHU216HW,2013-03-20 05:20:00,
2013-03-20 01:25:00,37.8,23.1,29.89,NW,315,4.7,8.3,55,0.00,,,0.00,WUHU216HW,2013-03-20 05:25:00,
2013-03-20 01:30:00,37.6,23.3,29.90,NW,315,6.5,8.9,56,0.00,,,0.00,WUHU216HW,2013-03-20 05:30:00,
2013-03-20 01:35:00,37.4,23.1,29.90,WSW,248,1.8,8.9,56,0.00,,,0.00,WUHU216HW,2013-03-20 05:35:00,
2013-03-20 01:40:00,37.1,23.2,29.90,WNW,293,1.8,6.7,57,0.00,,,0.00,WUHU216HW,2013-03-20 05:40:00,
2013-03-20 01:45:00,37.1,23.2,29.91,SW,225,1.3,6.7,57,0.00,,,0.00,WUHU216HW,2013-03-20 05:45:00,
2013-03-20 01:50:00,36.9,23.0,29.91,SW,225,3.6,6.7,57,0.00,,,0.00,WUHU216HW,2013-03-20 05:50:00,
2013-03-20 01:55:00,36.7,22.5,29.91,SW,225,3.6,6.5,56,0.00,,,0.00,WUHU216HW,2013-03-20 05:55:00,
2013-03-20 02:00:00,36.7,22.9,29.91,NNW,338,6.0,6.7,57,0.00,,,0.00,WUHU216HW,2013-03-20 06:00:00,
2013-03-20 02:05:00,36.7,22.9,29.91,West,270,2.7,8.3,57,0.00,,,0.00,WUHU216HW,2013-03-20 06:05:00,
2013-03-20 02:10:00,36.5,22.3,29.91,NW,315,2.9,9.2,56,0.00,,,0.00,WUHU216HW,2013-03-20 06:10:00,
2013-03-20 02:15:00,36.5,22.8,29.91,NNW,338,6.0,9.2,57,0.00,,,0.00,WUHU216HW,2013-03-20 06:15:00,
2013-03-20 02:20:00,36.4,22.6,29.91,ESE,113,2.5,6.3,57,0.00,,,0.00,WUHU216HW,2013-03-20 06:20:00,
2013-03-20 02:25:00,36.4,22.6,29.91,WNW,293,4.0,6.3,57,0.00,,,0.00,WUHU216HW,2013-03-20 06:25:00,
2013-03-20 02:30:00,36.4,22.6,29.91,WNW,293,4.0,5.4,57,0.00,,,0.00,WUHU216HW,2013-03-20 06:30:00,
2013-03-20 03:00:00,35.6,22.8,29.92,WNW,293,1.6,1.6,59,0.00,,,0.00,WUHU216HW,2013-03-20 07:00:00,
2013-03-20 03:05:00,35.6,22.8,29.92,WNW,293,1.6,1.6,59,0.00,,,0.00,WUHU216HW,2013-03-20 07:05:00,
2013-03-20 04:00:00,34.6,22.9,29.94,SSW,203,2.5,2.5,62,0.00,,,0.00,WUHU216HW,2013-03-20 08:00:00,
2013-03-20 04:05:00,34.6,22.9,29.94,SSW,203,2.5,2.5,62,0.00,,,0.00,WUHU216HW,2013-03-20 08:05:00,
2013-03-20 05:00:00,33.1,22.6,29.94,West,270,1.1,1.1,65,0.00,,,0.00,WUHU216HW,2013-03-20 09:00:00,
2013-03-20 05:05:00,32.9,22.8,29.94,WNW,293,0.4,2.5,66,0.00,,,0.00,WUHU216HW,2013-03-20 09:05:00,
2013-03-20 05:10:00,32.8,22.6,29.93,NW,315,1.6,2.5,66,0.00,,,0.00,WUHU216HW,2013-03-20 09:10:00,
2013-03-20 05:15:00,32.8,23.0,29.93,West,270,1.8,2.5,67,0.00,,,0.00,WUHU216HW,2013-03-20 09:15:00,
2013-03-20 05:20:00,32.8,23.0,29.93,SSE,158,0.7,2.7,67,0.00,,,0.00,WUHU216HW,2013-03-20 09:20:00,
2013-03-20 05:25:00,32.8,23.0,29.93,NNW,338,2.7,2.9,67,0.00,,,0.00,WUHU216HW,2013-03-20 09:25:00,
2013-03-20 05:30:00,32.8,23.0,29.93,SW,225,0.7,3.8,67,0.00,,,0.00,WUHU216HW,2013-03-20 09:30:00,
2013-03-20 05:35:00,32.6,22.8,29.92,West,270,0.4,3.8,67,0.00,,,0.00,WUHU216HW,2013-03-20 09:35:00,
2013-03-20 05:40:00,32.4,23.1,29.93,SW,225,1.6,3.1,68,0.00,,,0.00,WUHU216HW,2013-03-20 09:40:00,
2013-03-20 05:45:00,32.4,23.1,29.93,WSW,248,1.8,3.1,68,0.00,,,0.00,WUHU216HW,2013-03-20 09:45:00,
2013-03-20 05:50:00,32.4,23.1,29.93,WSW,248,1.8,2.5,68,0.00,,,0.00,WUHU216HW,2013-03-20 09:50:00,
2013-03-20 06:00:00,32.0,23.0,29.94,WSW,248,0.4,0.4,69,0.00,,,0.00,WUHU216HW,2013-03-20 10:00:00,
2013-03-20 06:05:00,32.0,23.0,29.94,WSW,248,0.4,0.4,69,0.00,,,0.00,WUHU216HW,2013-03-20 10:05:00,
2013-03-20 06:10:00,32.0,23.0,29.94,WSW,248,0.4,0.4,69,0.00,,,0.00,WUHU216HW,2013-03-20 10:10:00,
2013-03-20 07:00:00,31.7,22.7,29.94,WSW,248,1.8,1.8,69,0.00,,,0.00,WUHU216HW,2013-03-20 11:00:00,
2013-03-20 07:05:00,31.7,22.7,29.94,WSW,248,1.8,1.8,69,0.00,,,0.00,WUHU216HW,2013-03-20 11:05:00,
2013-03-20 08:00:00,32.4,23.8,29.95,SSW,203,0.2,0.2,70,0.00,,,0.00,WUHU216HW,2013-03-20 12:00:00,
2013-03-20 08:05:00,32.8,24.0,29.95,WSW,248,1.8,2.7,70,0.00,,,0.00,WUHU216HW,2013-03-20 12:05:00,
2013-03-20 08:10:00,32.9,23.9,29.95,SW,225,1.1,2.7,69,0.00,,,0.00,WUHU216HW,2013-03-20 12:10:00,
2013-03-20 08:15:00,32.9,23.9,29.95,SW,225,1.1,2.7,69,0.00,,,0.00,WUHU216HW,2013-03-20 12:15:00,
2013-03-20 09:00:00,37.8,23.9,29.95,NE,45,1.1,1.1,57,0.00,,,0.00,WUHU216HW,2013-03-20 13:00:00,
2013-03-20 09:05:00,37.8,23.9,29.95,NE,45,1.1,1.1,57,0.00,,,0.00,WUHU216HW,2013-03-20 13:05:00,
2013-03-20 10:00:00,41.0,23.2,29.94,WNW,293,2.0,2.0,49,0.00,,,0.00,WUHU216HW,2013-03-20 14:00:00,
2013-03-20 10:05:00,41.0,22.7,29.94,WNW,293,2.5,8.9,48,0.00,,,0.00,WUHU216HW,2013-03-20 14:05:00,
2013-03-20 10:10:00,41.2,22.9,29.94,SW,225,3.8,8.9,48,0.00,,,0.00,WUHU216HW,2013-03-20 14:10:00,
2013-03-20 10:15:00,41.4,23.0,29.94,West,270,1.6,8.7,48,0.00,,,0.00,WUHU216HW,2013-03-20 14:15:00,
2013-03-20 10:20:00,41.6,23.2,29.94,SW,225,1.6,7.4,48,0.00,,,0.00,WUHU216HW,2013-03-20 14:20:00,
2013-03-20 10:25:00,41.8,23.9,29.94,NE,45,4.7,5.1,49,0.00,,,0.00,WUHU216HW,2013-03-20 14:25:00,
2013-03-20 10:30:00,42.3,23.9,29.94,SW,225,6.3,6.3,48,0.00,,,0.00,WUHU216HW,2013-03-20 14:30:00,
2013-03-20 10:35:00,42.8,23.4,29.94,WSW,248,4.0,6.3,46,0.00,,,0.00,WUHU216HW,2013-03-20 14:35:00,
2013-03-20 10:40:00,43.0,22.5,29.94,North,0,2.5,6.3,44,0.00,,,0.00,WUHU216HW,2013-03-20 14:40:00,
2013-03-20 10:45:00,43.2,22.2,29.93,SSW,203,6.5,11.4,43,0.00,,,0.00,WUHU216HW,2013-03-20 14:45:00,
2013-03-20 10:50:00,43.6,22.4,29.93,NNW,338,5.4,11.4,43,0.00,,,0.00,WUHU216HW,2013-03-20 14:50:00,
2013-03-20 10:55:00,43.7,22.1,29.93,SW,225,3.4,9.8,42,0.00,,,0.00,WUHU216HW,2013-03-20 14:55:00,
2013-03-20 11:00:00,44.3,22.5,29.93,West,270,2.5,9.8,42,0.00,,,0.00,WUHU216HW,2013-03-20 15:00:00,
2013-03-20 11:05:00,44.8,22.0,29.93,NW,315,4.0,7.6,40,0.00,,,0.00,WUHU216HW,2013-03-20 15:05:00,
2013-03-20 11:10:00,45.0,23.2,29.93,NNW,338,3.4,7.6,42,0.00,,,0.00,WUHU216HW,2013-03-20 15:10:00,
2013-03-20 11:15:00,45.4,22.4,29.93,SE,135,5.4,8.5,40,0.00,,,0.00,WUHU216HW,2013-03-20 15:15:00,
2013-03-20 11:20:00,45.7,22.8,29.93,SSW,203,5.1,8.5,40,0.00,,,0.00,WUHU216HW,2013-03-20 15:20:00,
2013-03-20 11:25:00,45.9,21.6,29.93,SW,225,1.8,8.5,38,0.00,,,0.00,WUHU216HW,2013-03-20 15:25:00,
2013-03-20 11:30:00,46.4,22.1,29.93,ENE,68,3.6,9.2,38,0.00,,,0.00,WUHU216HW,2013-03-20 15:30:00,
2013-03-20 11:35:00,46.6,22.2,29.93,SSW,203,3.4,9.2,38,0.00,,,0.00,WUHU216HW,2013-03-20 15:35:00,
2013-03-20 11:40:00,46.8,22.4,29.93,WSW,248,5.6,8.9,38,0.00,,,0.00,WUHU216HW,2013-03-20 15:40:00,
2013-03-20 11:45:00,47.2,23.4,29.93,WSW,248,5.4,8.5,39,0.00,,,0.00,WUHU216HW,2013-03-20 15:45:00,
2013-03-20 11:50:00,47.3,22.9,29.92,NW,315,1.8,12.1,38,0.00,,,0.00,WUHU216HW,2013-03-20 15:50:00,
2013-03-20 11:55:00,47.7,23.2,29.92,WNW,293,1.8,12.1,38,0.00,,,0.00,WUHU216HW,2013-03-20 15:55:00,
2013-03-20 12:00:00,47.9,22.7,29.92,West,270,10.1,10.1,37,0.01,,,0.01,WUHU216HW,2013-03-20 16:00:00,
2013-03-20 12:05:00,47.9,23.4,29.92,SSW,203,1.8,10.5,38,0.01,,,0.01,WUHU216HW,2013-03-20 16:05:00,
2013-03-20 12:10:00,48.6,24.0,29.92,NE,45,1.1,10.5,38,0.01,,,0.01,WUHU216HW,2013-03-20 16:10:00,
2013-03-20 12:15:00,49.1,23.8,29.92,West,270,4.7,6.5,37,0.01,,,0.01,WUHU216HW,2013-03-20 16:15:00,
2013-03-20 12:20:00,49.1,23.1,29.92,SSW,203,7.4,7.8,36,0.01,,,0.01,WUHU216HW,2013-03-20 16:20:00,
2013-03-20 12:25:00,49.3,23.9,29.92,WSW,248,5.1,9.8,37,0.01,,,0.01,WUHU216HW,2013-03-20 16:25:00,
2013-03-20 12:30:00,49.3,23.3,29.91,NNW,338,2.5,9.8,36,0.01,,,0.01,WUHU216HW,2013-03-20 16:30:00,
2013-03-20 12:35:00,49.5,23.4,29.91,NW,315,1.8,8.1,36,0.01,,,0.01,WUHU216HW,2013-03-20 16:35:00,
2013-03-20 12:40:00,49.5,22.1,29.91,WSW,248,4.7,9.4,34,0.01,,,0.01,WUHU216HW,2013-03-20 16:40:00,
2013-03-20 12:45:00,49.9,22.4,29.91,West,270,3.6,9.8,34,0.01,,,0.01,WUHU216HW,2013-03-20 16:45:00,
2013-03-20 12:50:00,50.2,24.8,29.91,North,0,2.5,9.8,37,0.01,,,0.01,WUHU216HW,2013-03-20 16:50:00,
2013-03-20 12:55:00,50.4,22.9,29.90,South,180,3.4,7.6,34,0.01,,,0.01,WUHU216HW,2013-03-20 16:55:00,
2013-03-20 13:00:00,50.8,23.2,29.90,SW,225,7.4,8.1,34,0.00,,,0.01,WUHU216HW,2013-03-20 17:00:00,
2013-03-20 13:05:00,50.4,22.9,29.90,SSW,203,4.9,11.2,34,0.00,,,0.01,WUHU216HW,2013-03-20 17:05:00,
2013-03-20 13:10:00,50.4,22.9,29.90,South,180,6.9,11.2,34,0.00,,,0.01,WUHU216HW,2013-03-20 17:10:00,
2013-03-20 13:15:00,50.4,22.9,29.89,WSW,248,6.3,11.0,34,0.00,,,0.01,WUHU216HW,2013-03-20 17:15:00,
2013-03-20 13:20:00,50.4,22.1,29.89,SSW,203,6.9,12.3,33,0.00,,,0.01,WUHU216HW,2013-03-20 17:20:00,
2013-03-20 13:25:00,50.2,22.7,29.89,WSW,248,4.7,12.3,34,0.00,,,0.01,WUHU216HW,2013-03-20 17:25:00,
2013-03-20 13:30:00,50.8,23.2,29.89,SW,225,3.1,10.5,34,0.00,,,0.01,WUHU216HW,2013-03-20 17:30:00,
2013-03-20 13:35:00,51.5,23.9,29.89,SW,225,5.1,8.5,34,0.00,,,0.01,WUHU216HW,2013-03-20 17:35:00,
2013-03-20 13:40:00,51.8,23.5,29.89,SW,225,4.7,8.5,33,0.00,,,0.01,WUHU216HW,2013-03-20 17:40:00,
2013-03-20 13:45:00,51.5,23.1,29.88,SW,225,5.4,11.9,33,0.00,,,0.01,WUHU216HW,2013-03-20 17:45:00,
2013-03-20 13:50:00,51.3,23.0,29.88,North,0,3.4,11.9,33,0.00,,,0.01,WUHU216HW,2013-03-20 17:50:00,
2013-03-20 13:55:00,51.7,22.6,29.88,North,0,4.0,9.8,32,0.00,,,0.01,WUHU216HW,2013-03-20 17:55:00,
2013-03-20 14:00:00,51.8,22.8,29.87,NW,315,2.7,8.5,32,0.00,,,0.01,WUHU216HW,2013-03-20 18:00:00,
2013-03-20 14:05:00,51.8,22.8,29.87,NNE,23,2.5,8.5,32,0.00,,,0.01,WUHU216HW,2013-03-20 18:05:00,
2013-03-20 14:10:00,52.0,23.7,29.86,West,270,4.7,6.9,33,0.00,,,0.01,WUHU216HW,2013-03-20 18:10:00,
2013-03-20 14:15:00,52.0,23.7,29.86,WSW,248,5.4,9.6,33,0.00,,,0.01,WUHU216HW,2013-03-20 18:15:00,
2013-03-20 14:20:00,52.2,23.1,29.86,SW,225,9.8,9.8,32,0.00,,,0.01,WUHU216HW,2013-03-20 18:20:00,
2013-03-20 14:25:00,51.8,22.8,29.85,WSW,248,6.3,11.6,32,0.00,,,0.01,WUHU216HW,2013-03-20 18:25:00,
2013-03-20 14:30:00,51.5,23.9,29.85,SSE,158,2.2,12.1,34,0.00,,,0.01,WUHU216HW,2013-03-20 18:30:00,
2013-03-20 14:35:00,52.0,23.0,29.85,WSW,248,9.6,12.1,32,0.00,,,0.01,WUHU216HW,2013-03-20 18:35:00,
2013-03-20 14:40:00,51.8,22.8,29.85,SSW,203,2.0,11.9,32,0.00,,,0.01,WUHU216HW,2013-03-20 18:40:00,
2013-03-20 14:45:00,52.4,23.9,29.85,SSW,203,5.6,9.6,33,0.00,,,0.01,WUHU216HW,2013-03-20 18:45:00,
2013-03-20 14:50:00,52.0,23.7,29.86,SW,225,9.8,12.3,33,0.00,,,0.01,WUHU216HW,2013-03-20 18:50:00,
2013-03-20 14:55:00,51.8,23.5,29.86,West,270,9.2,12.3,33,0.00,,,0.01,WUHU216HW,2013-03-20 18:55:00,
2013-03-20 15:00:00,51.3,22.3,29.85,WSW,248,8.7,13.4,32,0.00,,,0.01,WUHU216HW,2013-03-20 19:00:00,
2013-03-20 15:05:00,51.1,22.9,29.85,WNW,293,11.2,13.4,33,0.00,,,0.01,WUHU216HW,2013-03-20 19:05:00,
2013-03-20 15:10:00,51.1,22.9,29.84,WSW,248,6.5,11.2,33,0.00,,,0.01,WUHU216HW,2013-03-20 19:10:00,
2013-03-20 15:15:00,50.9,23.3,29.85,SW,225,6.5,11.2,34,0.00,,,0.01,WUHU216HW,2013-03-20 19:15:00,
2013-03-20 15:20:00,50.2,22.1,29.85,WSW,248,8.3,11.0,33,0.00,,,0.01,WUHU216HW,2013-03-20 19:20:00,
2013-03-20 15:25:00,50.6,23.1,29.85,NNE,23,3.6,12.3,34,0.00,,,0.01,WUHU216HW,2013-03-20 19:25:00,
2013-03-20 15:30:00,50.2,22.1,29.85,WNW,293,4.7,12.3,33,0.00,,,0.01,WUHU216HW,2013-03-20 19:30:00,
2013-03-20 15:35:00,50.2,22.1,29.85,WNW,293,4.7,8.7,33,0.00,,,0.01,WUHU216HW,2013-03-20 19:35:00,
2013-03-20 15:59:00,49.9,22.4,29.85,SSW,203,5.8,5.8,34,0.00,,,0.01,WUHU216HW,2013-03-20 19:59:00,
2013-03-20 16:05:00,50.2,22.7,29.85,SW,225,3.8,9.6,34,0.00,,,0.01,WUHU216HW,2013-03-20 20:05:00,
2013-03-20 16:09:00,50.2,22.7,29.85,SW,225,4.5,10.3,34,0.00,,,0.01,WUHU216HW,2013-03-20 20:09:00,
2013-03-20 16:15:00,49.9,23.8,29.85,SW,225,3.4,13.9,36,0.00,,,0.01,WUHU216HW,2013-03-20 20:15:00,
2013-03-20 16:20:00,50.0,23.2,29.84,West,270,1.8,13.9,35,0.00,,,0.01,WUHU216HW,2013-03-20 20:20:00,
2013-03-20 16:25:00,50.4,22.9,29.84,SW,225,4.9,9.8,34,0.00,,,0.01,WUHU216HW,2013-03-20 20:25:00,
2013-03-20 16:30:00,49.9,22.4,29.84,West,270,4.7,10.7,34,0.00,,,0.01,WUHU216HW,2013-03-20 20:30:00,
2013-03-20 16:35:00,49.1,21.1,29.84,SW,225,4.5,10.7,33,0.00,,,0.01,WUHU216HW,2013-03-20 20:35:00,
2013-03-20 16:40:00,49.1,21.8,29.84,SW,225,3.6,7.6,34,0.00,,,0.01,WUHU216HW,2013-03-20 20:40:00,
2013-03-20 16:45:00,49.1,21.8,29.84,SW,225,3.6,4.5,34,0.00,,,0.01,WUHU216HW,2013-03-20 20:45:00,
2013-03-20 17:00:00,48.4,21.2,29.84,West,270,2.0,2.0,34,0.00,,,0.01,WUHU216HW,2013-03-20 21:00:00,
2013-03-20 17:05:00,48.4,21.2,29.84,West,270,2.0,2.0,34,0.00,,,0.01,WUHU216HW,2013-03-20 21:05:00,
2013-03-20 17:12:00,47.9,20.7,29.84,NNW,338,11.0,11.0,34,0.00,,,0.01,WUHU216HW,2013-03-20 21:12:00,
2013-03-20 17:17:00,47.5,22.4,29.84,NNE,23,3.4,11.0,37,0.00,,,0.01,WUHU216HW,2013-03-20 21:17:00,
2013-03-20 17:22:00,47.7,23.2,29.84,WNW,293,0.9,6.3,38,0.00,,,0.01,WUHU216HW,2013-03-20 21:22:00,
2013-03-20 17:27:00,48.1,22.2,29.84,WSW,248,6.9,6.9,36,0.00,,,0.01,WUHU216HW,2013-03-20 21:27:00,
2013-03-20 17:32:00,47.9,22.7,29.84,SW,225,2.2,8.1,37,0.00,,,0.01,WUHU216HW,2013-03-20 21:32:00,
2013-03-20 17:37:00,47.7,21.9,29.84,West,270,3.1,8.1,36,0.00,,,0.01,WUHU216HW,2013-03-20 21:37:00,
2013-03-20 17:42:00,47.5,21.7,29.84,NNW,338,2.9,7.8,36,0.00,,,0.01,WUHU216HW,2013-03-20 21:42:00,
2013-03-20 17:47:00,47.5,22.4,29.84,SW,225,2.5,4.5,37,0.00,,,0.01,WUHU216HW,2013-03-20 21:47:00,
2013-03-20 17:52:00,47.9,22.7,29.84,SSW,203,4.7,6.0,37,0.00,,,0.01,WUHU216HW,2013-03-20 21:52:00,
2013-03-20 17:57:00,48.1,22.2,29.84,SSW,203,1.1,6.0,36,0.00,,,0.01,WUHU216HW,2013-03-20 21:57:00,
2013-03-20 18:02:00,48.1,22.9,29.84,SW,225,1.8,5.4,37,0.00,,,0.01,WUHU216HW,2013-03-20 22:02:00,
2013-03-20 18:07:00,48.1,22.9,29.83,WSW,248,1.6,4.5,37,0.00,,,0.01,WUHU216HW,2013-03-20 22:07:00,
2013-03-20 18:12:00,47.9,22.7,29.83,SW,225,2.0,6.3,37,0.00,,,0.01,WUHU216HW,2013-03-20 22:12:00,
2013-03-20 18:17:00,47.7,21.9,29.83,WSW,248,5.1,6.3,36,0.00,,,0.01,WUHU216HW,2013-03-20 22:17:00,
2013-03-20 18:22:00,47.3,20.9,29.83,SW,225,3.4,9.2,35,0.00,,,0.01,WUHU216HW,2013-03-20 22:22:00,
2013-03-20 18:27:00,47.2,21.4,29.83,SW,225,4.5,9.2,36,0.00,,,0.01,WUHU216HW,2013-03-20 22:27:00,
2013-03-20 18:32:00,47.2,21.4,29.83,SW,225,4.5,8.1,36,0.00,,,0.01,WUHU216HW,2013-03-20 22:32:00,
2013-03-20 19:00:00,45.4,21.1,29.83,WNW,293,2.7,2.7,38,0.00,,,0.01,WUHU216HW,2013-03-20 23:00:00,
2013-03-20 19:05:00,45.4,21.1,29.83,WNW,293,2.7,2.7,38,0.00,,,0.01,WUHU216HW,2013-03-20 23:05:00,
2013-03-20 19:59:00,41.8,28.9,29.83,SSW,203,1.1,1.1,60,0.00,,,0.01,WUHU216HW,2013-03-20 23:59:00,
2013-03-20 20:04:00,41.6,28.3,29.83,South,180,1.3,2.2,59,0.00,,,0.01,WUHU216HW,2013-03-21 00:04:00,
2013-03-20 20:10:00,41.4,29.7,29.83,SSE,158,3.4,5.4,63,0.00,,,0.01,WUHU216HW,2013-03-21 00:10:00,
2013-03-20 20:15:00,41.4,30.5,29.83,SW,225,4.0,5.4,65,0.00,,,0.01,WUHU216HW,2013-03-21 00:15:00,
2013-03-20 20:20:00,41.4,31.2,29.83,SW,225,1.3,4.0,67,0.00,,,0.01,WUHU216HW,2013-03-21 00:20:00,
2013-03-20 20:25:00,41.4,32.4,29.83,SW,225,2.0,4.0,70,0.00,,,0.01,WUHU216HW,2013-03-21 00:25:00,
2013-03-20 20:30:00,41.4,31.2,29.83,SW,225,1.3,3.1,67,0.00,,,0.01,WUHU216HW,2013-03-21 00:30:00,
2013-03-20 20:35:00,41.2,32.6,29.83,SW,225,2.9,3.6,71,0.00,,,0.01,WUHU216HW,2013-03-21 00:35:00,
2013-03-20 20:40:00,41.2,32.2,29.83,SW,225,1.8,3.8,70,0.00,,,0.01,WUHU216HW,2013-03-21 00:40:00,
2013-03-20 20:45:00,41.0,33.0,29.84,South,180,2.2,4.0,73,0.00,,,0.01,WUHU216HW,2013-03-21 00:45:00,
2013-03-20 20:50:00,41.2,33.2,29.84,SSW,203,2.2,4.7,73,0.00,,,0.01,WUHU216HW,2013-03-21 00:50:00,
2013-03-20 20:55:00,41.2,33.2,29.84,SSW,203,2.2,4.7,73,0.00,,,0.01,WUHU216HW,2013-03-21 00:55:00,
2013-03-20 21:00:00,41.2,33.5,29.84,SSW,203,5.1,5.1,74,0.00,,,0.01,WUHU216HW,2013-03-21 01:00:00,
2013-03-20 21:05:00,41.2,33.5,29.84,SSW,203,5.1,5.1,74,0.00,,,0.01,WUHU216HW,2013-03-21 01:05:00,
2013-03-20 22:00:00,42.1,30.8,29.84,WSW,248,4.7,4.7,64,0.00,,,0.01,WUHU216HW,2013-03-21 02:00:00,
2013-03-20 22:05:00,42.1,30.8,29.84,WSW,248,4.7,4.7,64,0.00,,,0.01,WUHU216HW,2013-03-21 02:05:00,
2013-03-20 23:00:00,42.3,32.1,29.84,SW,225,4.9,4.9,67,0.00,,,0.01,WUHU216HW,2013-03-21 03:00:00,
2013-03-20 23:05:00,42.3,31.8,29.84,SW,225,1.8,6.3,66,0.00,,,0.01,WUHU216HW,2013-03-21 03:05:00,
2013-03-20 23:10:00,42.3,31.8,29.84,SW,225,1.8,6.3,66,0.00,,,0.01,WUHU216HW,2013-03-21 03:10:00,